Flag for Germany Weather past 2 weeks in Fellbach, Baden-Württemberg, Germany

Now
61 °F

Clear.


Feels Like: 61 °F
Forecast: 58 / 75 °F
Wind: No wind

Location: Stuttgart-Echterdingen

Current Time: Sep 20, 2014 at 12:00:25 AM

Latest Report: Sep 19, 2014 at 11:20 PM


Visibility: 10 mi

Pressure: 30.01 "Hg

Humidity: 88%

Dew point: 57 °F

Location of FellbachLocation

Historic Weather in Fellbach — Graph

°F

Fellbach temperature yesterday

Maximum temperature yesterday: 75 °F (at 1:20 PM)
Minimum temperature yesterday: 55 °F (at 3:50 AM)
Average temperature yesterday: 65 °F

Past Weeks' High & Low Weather Summary

 TemperatureHumidityPressure
High77 °F (Sep 6, 2:50 PM)100% (Sep 5, 3:50 AM)30.15 "Hg (Sep 5, 3:50 AM)
Low52 °F (Sep 11, 1:50 AM)50% (Sep 5, 5:20 PM)29.89 "Hg (Sep 17, 2:50 PM)
Average62 °F84%30.01 "Hg
* Reported Sep 4 10:20 PM — Sep 19 10:50 PM, Fellbach, Weather by CustomWeather, © 2014

Note: Actual official high and low records may vary slightly from our data, if they occured in-between our weather recording intervals... More about our weather records

Advertising

Fellbach weather history for previous 24 hours

 ConditionsComfort  
Time TempWeatherWind HumidityBarometerVisibility
10:50 PM
Sep 19
63 °FClear.2 mph88%30.01 "Hg10 mi
10:20 PM63 °FClear.3 mph88%30.01 "Hg10 mi
9:50 PM64 °FClear.2 mph83%29.98 "Hg10 mi
9:20 PM64 °FClear.1 mph83%29.98 "Hg10 mi
8:50 PM66 °FClear.2 mph78%29.98 "Hg10 mi
8:20 PM66 °FSunny.No wind83%29.98 "Hg10 mi
7:50 PM66 °FSunny.2 mph83%29.98 "Hg10 mi
7:20 PM66 °FPartly sunny.2 mph83%29.98 "HgN/A
6:50 PM68 °FBroken clouds.3 mph83%29.98 "HgN/A
6:20 PM70 °FBroken clouds.3 mph73%29.98 "HgN/A
5:50 PM72 °FBroken clouds.2 mph65%29.98 "HgN/A
5:20 PM72 °FSprinkles. Partly sunny.3 mph65%29.98 "HgN/A
4:50 PM72 °FScattered showers. Partly sunny.10 mph65%29.98 "HgN/A
4:20 PM72 °FThundershowers. Scattered clouds.13 mph69%29.98 "HgN/A
3:50 PM73 °FScattered showers. Scattered clouds.8 mph65%29.95 "HgN/A
3:20 PM73 °FScattered showers. Scattered clouds.5 mph65%29.95 "HgN/A
2:50 PM75 °FScattered showers. Scattered clouds.7 mph61%29.95 "HgN/A
2:20 PM75 °FBroken clouds.5 mph61%29.95 "HgN/A
1:50 PM75 °FScattered clouds.5 mph65%29.95 "HgN/A
1:20 PM75 °FScattered clouds.3 mph61%29.95 "HgN/A
12:50 PM72 °FPartly sunny.6 mph69%29.98 "HgN/A
12:20 PM72 °FPartly sunny.6 mph69%29.98 "HgN/A
11:50 AM72 °FPartly sunny.3 mph69%29.98 "HgN/A
11:20 AM72 °FSunny.1 mph73%29.98 "Hg10 mi
10:50 AM68 °FSunny.3 mph78%29.98 "Hg10 mi
10:20 AM66 °FSunny.1 mph83%29.98 "Hg10 mi
9:50 AM66 °FScattered clouds.1 mph83%29.98 "HgN/A
9:20 AM63 °FPartly sunny.2 mph88%29.98 "HgN/A
8:50 AM61 °FPartly sunny.No wind94%29.98 "HgN/A
8:20 AM59 °FPartly sunny.1 mph100%29.98 "HgN/A
7:50 AM59 °FPartly cloudy.2 mph94%29.95 "HgN/A
7:20 AM59 °FPassing clouds.1 mph94%29.95 "HgN/A
6:50 AM59 °FPartly cloudy.5 mph94%29.95 "HgN/A
6:20 AM61 °FRain. Passing clouds.No wind88%29.95 "HgN/A
5:50 AM61 °FLight rain. Passing clouds.6 mph88%29.95 "HgN/A
5:20 AM61 °FClear.2 mph88%29.95 "Hg10 mi
4:50 AM61 °FClear.2 mph88%29.95 "Hg10 mi
4:20 AM59 °FClear.2 mph94%29.95 "Hg10 mi
3:50 AM55 °FClear.1 mph94%29.95 "Hg10 mi
3:20 AM57 °FClear.1 mph94%29.92 "Hg10 mi
2:50 AM57 °FClear.2 mph94%29.95 "Hg10 mi
2:20 AM57 °FClear.3 mph100%29.95 "Hg10 mi
1:50 AM59 °FClear.1 mph94%29.95 "Hg10 mi
1:20 AM59 °FClear.1 mph94%29.95 "Hg10 mi
12:50 AM59 °FFog.3 mph100%29.95 "HgN/A
12:20 AM59 °FLight fog.2 mph100%29.95 "HgN/A
Weather by CustomWeather, © 2014

See weather overviewHow to use our weather pages